EW2142 Weather Reports


time (UTC)temp
C
wind
direction
speed
KPH
gust
KPH
rain 1hr
cm
rain 24hr
cm
rain mn
cm
humidity
%
barometer
mb
20260505203503 3 0 0.0 0.0 0.00 0.00 0.00 70 1011.4
20260505203003 3 0 0.0 0.0 0.00 0.00 0.00 69 1011.4
20260505202503 3 0 0.0 0.0 0.00 0.00 0.00 69 1011.4
20260505202024 3 0 0.0 0.0 0.00 0.00 0.00 69 1011.4
20260505201524 3 0 0.0 0.0 0.00 0.00 0.00 68 1011.4
20260505201003 3 0 0.0 0.0 0.00 0.00 0.00 67 1011.3
20260505200503 3 0 0.0 0.0 0.00 0.00 0.00 67 1011.3
20260505200003 4 0 0.0 0.0 0.00 0.00 0.00 66 1011.3
20260505195503 4 0 0.0 0.0 0.00 0.00 0.00 65 1011.3
20260505195003 4 0 0.0 0.0 0.00 0.00 0.00 65 1011.3
20260505194503 5 0 0.0 0.0 0.00 0.00 0.00 64 1011.3
20260505194003 5 0 0.0 0.0 0.00 0.00 0.00 63 1011.3
20260505193503 5 0 0.0 0.0 0.00 0.00 0.00 62 1011.2
20260505193003 5 0 0.0 0.0 0.00 0.00 0.00 62 1011.1
20260505192503 5 0 0.0 0.0 0.00 0.00 0.00 61 1011.1
20260505192002 6 0 0.0 0.0 0.00 0.00 0.00 60 1011.0
20260505191503 6 0 0.0 0.0 0.00 0.00 0.00 59 1011.1
20260505191003 6 0 0.0 0.0 0.00 0.00 0.00 59 1011.0
20260505190503 6 0 0.0 0.0 0.00 0.00 0.00 57 1011.0
20260505190024 6 0 0.0 0.0 0.00 0.00 0.00 56 1011.0
20260505185503 7 0 0.0 0.0 0.00 0.00 0.00 54 1010.9
20260505185003 7 0 0.0 0.0 0.00 0.00 0.00 53 1010.9
20260505184503 7 0 0.0 0.0 0.00 0.00 0.00 52 1010.9
20260505184003 8 0 0.0 0.0 0.00 0.00 0.00 49 1010.9
20260505183503 8 0 0.0 0.0 0.00 0.00 0.00 48 1010.9
20260505183003 8 0 0.0 0.0 0.00 0.00 0.00 45 1010.8
20260505182503 9 0 0.0 0.0 0.00 0.00 0.00 44 1010.8
20260505182023 10 0 0.0 0.0 0.00 0.00 0.00 43 1010.8
20260505181503 10 0 0.0 0.0 0.00 0.00 0.00 41 1010.8
20260505181003 11 0 0.0 0.0 0.00 0.00 0.00 39 1010.8
20260505180503 12 0 0.0 0.0 0.00 0.00 0.00 38 1010.9
20260505180003 12 0 0.0 0.0 0.00 0.00 0.00 39 1010.8
20260505175503 12 324 0.0 1.6 0.00 0.00 0.00 36 1010.8
20260505175003 12 324 0.0 1.6 0.00 0.00 0.00 36 1010.7
20260505174503 13 0 0.0 0.0 0.00 0.00 0.00 36 1010.7
20260505174003 13 312 0.0 1.6 0.00 0.00 0.00 35 1010.7
20260505173503 13 312 0.0 1.6 0.00 0.00 0.00 35 1010.6
20260505173003 13 261 0.0 1.6 0.00 0.00 0.00 36 1010.8
20260505172503 13 155 0.0 4.8 0.00 0.00 0.00 35 1010.8
20260505172002 13 175 0.0 4.8 0.00 0.00 0.00 36 1010.7
20260505171503 13 293 0.0 6.4 0.00 0.00 0.00 36 1010.6
20260505171003 12 294 0.0 6.4 0.00 0.00 0.00 38 1010.6
20260505170503 13 304 0.0 4.8 0.00 0.00 0.00 36 1010.6
20260505170024 13 306 0.0 4.8 0.00 0.00 0.00 33 1010.6
20260505165503 13 325 0.0 3.2 0.00 0.00 0.00 35 1010.6
20260505165024 12 311 0.0 4.8 0.00 0.00 0.00 35 1010.5
20260505164503 12 303 0.0 6.4 0.00 0.00 0.00 36 1010.6
20260505164003 12 305 0.0 6.4 0.00 0.00 0.00 36 1010.8
20260505163503 12 298 0.0 4.8 0.00 0.00 0.00 36 1010.8
20260505163024 12 308 0.0 8.0 0.00 0.00 0.00 37 1010.8
20260505162503 12 305 1.6 8.0 0.00 0.00 0.00 36 1010.8
20260505162003 12 311 0.0 8.0 0.00 0.00 0.00 37 1010.8
20260505161523 12 309 1.6 8.0 0.00 0.00 0.00 36 1010.8
20260505161002 12 269 1.6 8.0 0.00 0.00 0.00 37 1010.8
20260505160503 12 262 1.6 8.0 0.00 0.00 0.00 37 1010.8
20260505153003 12 298 0.0 6.4 0.00 0.00 0.00 39 1010.7
20260505152504 12 305 1.6 9.7 0.00 0.00 0.00 38 1010.9
20260505152003 13 303 1.6 9.7 0.00 0.00 0.00 36 1010.8
20260505151503 13 291 0.0 6.4 0.00 0.00 0.00 34 1010.8
20260505151024 14 311 0.0 6.4 0.00 0.00 0.00 31 1010.8
20260505150503 13 316 1.6 8.0 0.00 0.00 0.00 33 1010.8
20260505140524 15 301 0.0 3.2 0.00 0.00 0.00 30 1010.7
20260505125003 13 305 1.6 12.9 0.00 0.00 0.00 35 1010.6
20260505124503 14 307 1.6 12.9 0.00 0.00 0.00 30 1010.8
20260505124003 14 290 0.0 6.4 0.00 0.00 0.00 32 1010.6
20260505123524 13 291 1.6 6.4 0.00 0.00 0.00 39 1010.5
20260505123003 13 306 0.0 3.2 0.00 0.00 0.00 36 1010.5
20260505122503 13 308 1.6 8.0 0.00 0.00 0.00 36 1010.6
20260505122003 13 293 1.6 8.0 0.00 0.00 0.00 39 1010.6
20260505121503 12 310 1.6 14.5 0.00 0.00 0.00 40 1010.5
20260505121002 13 308 1.6 14.5 0.00 0.00 0.00 40 1010.6
20260505120503 13 271 1.6 6.4 0.00 0.00 0.00 37 1010.6
20260505120003 13 289 1.6 6.4 0.00 0.00 0.00 39 1010.5
20260505115503 13 240 1.6 6.4 0.00 0.00 0.00 38 1010.5
20260505115024 13 242 1.6 8.0 0.00 0.00 0.00 37 1010.5
20260505114503 13 292 1.6 8.0 0.00 0.00 0.00 38 1010.4
20260505114003 13 269 1.6 8.0 0.00 0.00 0.00 39 1010.5
20260505113503 13 184 1.6 8.0 0.00 0.00 0.00 39 1010.4
20260505113003 13 179 1.6 8.0 0.00 0.00 0.00 39 1010.3
20260505112503 12 279 0.0 4.8 0.00 0.00 0.00 39 1010.4
20260505112024 12 302 1.6 11.3 0.00 0.00 0.00 41 1010.4
20260505111502 12 308 1.6 11.3 0.00 0.00 0.00 38 1010.4
20260505111003 13 283 1.6 6.4 0.00 0.00 0.00 38 1010.4
20260505110503 12 279 1.6 6.4 0.00 0.00 0.00 39 1010.4
20260505102003 12 299 1.6 9.7 0.00 0.00 0.00 36 1010.4
20260505101503 11 310 1.6 8.0 0.00 0.00 0.00 37 1010.5
20260505101003 12 313 1.6 8.0 0.00 0.00 0.00 40 1010.5
20260505100503 11 239 1.6 8.0 0.00 0.00 0.00 38 1010.4
20260505100002 11 265 1.6 6.4 0.00 0.00 0.00 37 1010.4
20260505095503 11 301 0.0 6.4 0.00 0.00 0.00 39 1010.4
20260505095003 11 252 0.0 6.4 0.00 0.00 0.00 40 1010.4
20260505094503 11 281 1.6 8.0 0.00 0.00 0.00 39 1010.3
20260505094024 11 294 1.6 8.0 0.00 0.00 0.00 42 1010.3
20260505093503 11 292 1.6 6.4 0.00 0.00 0.00 44 1010.2
20260505093003 11 290 1.6 6.4 0.00 0.00 0.00 41 1010.2
20260505092503 11 257 1.6 4.8 0.00 0.00 0.00 40 1010.2
20260505092003 11 276 1.6 8.0 0.00 0.00 0.00 42 1010.2
20260505091502 11 285 1.6 8.0 0.00 0.00 0.00 39 1010.1
20260505091003 11 264 1.6 6.4 0.00 0.00 0.00 39 1010.1
20260505090503 11 272 1.6 6.4 0.00 0.00 0.00 39 1010.1
20260505090003 11 297 1.6 6.4 0.00 0.00 0.00 40 1009.9
20260505085523 11 293 0.0 4.8 0.00 0.00 0.00 41 1010.0
20260505085003 11 295 1.6 4.8 0.00 0.00 0.00 46 1009.9
20260505084503 11 294 0.0 4.8 0.00 0.00 0.00 42 1009.8
20260505084003 11 187 0.0 4.8 0.00 0.00 0.00 44 1009.8
20260505083503 11 312 0.0 6.4 0.00 0.00 0.00 44 1009.8
20260505083003 11 314 0.0 6.4 0.00 0.00 0.00 44 1009.9
20260505082503 10 325 0.0 3.2 0.00 0.00 0.00 41 1009.9
20260505082003 10 319 0.0 3.2 0.00 0.00 0.00 43 1009.9
20260505081502 10 310 0.0 3.2 0.00 0.00 0.00 44 1009.8
20260505081003 10 307 1.6 6.4 0.00 0.00 0.00 45 1009.9
20260505080502 10 304 1.6 6.4 0.00 0.00 0.00 43 1009.9
20260505080024 9 305 1.6 14.5 0.00 0.00 0.00 46 1009.8
20260505075503 10 308 1.6 14.5 0.00 0.00 0.00 44 1009.8
20260505075003 10 24 0.0 4.8 0.00 0.00 0.00 49 1009.7
20260505074503 10 313 1.6 9.7 0.00 0.00 0.00 49 1009.7
20260505074003 10 312 1.6 9.7 0.00 0.00 0.00 48 1009.8
20260505073503 10 315 0.0 4.8 0.00 0.00 0.00 50 1009.7
20260505073003 10 315 0.0 4.8 0.00 0.00 0.00 50 1009.7
20260505072503 9 295 0.0 3.2 0.00 0.03 0.00 53 1009.7
20260505072003 9 308 0.0 6.4 0.00 0.03 0.00 52 1009.6
20260505071503 8 307 0.0 6.4 0.00 0.03 0.00 54 1009.5
20260505071002 8 309 0.0 4.8 0.00 0.03 0.00 52 1009.5
20260505070502 8 313 0.0 4.8 0.00 0.03 0.00 54 1009.6
20260505070003 8 283 0.0 1.6 0.00 0.03 0.00 54 1009.6
20260505065502 8 283 0.0 3.2 0.00 0.03 0.00 54 1009.6
20260505065003 8 285 0.0 3.2 0.00 0.03 0.00 54 1009.5
20260505064503 8 298 0.0 1.6 0.00 0.03 0.00 55 1009.5
20260505064003 7 297 0.0 1.6 0.00 0.03 0.00 56 1009.5
20260505063503 7 297 0.0 1.6 0.00 0.03 0.00 56 1009.4
20260505063003 7 299 0.0 3.2 0.00 0.03 0.00 58 1009.5
20260505062503 7 300 0.0 3.2 0.00 0.03 0.00 58 1009.4
20260505062003 6 156 0.0 1.6 0.00 0.03 0.00 59 1009.4
20260505061503 6 282 0.0 1.6 0.00 0.03 0.00 59 1009.4
20260505061002 6 298 0.0 1.6 0.00 0.03 0.00 60 1009.4
20260505060524 6 315 0.0 1.6 0.00 0.03 0.00 61 1009.4
20260505060003 6 289 0.0 1.6 0.00 0.03 0.00 62 1009.4
20260505055503 6 289 0.0 1.6 0.00 0.03 0.00 62 1009.4
20260505055003 6 0 0.0 0.0 0.00 0.03 0.00 62 1009.3
20260505054524 6 291 0.0 3.2 0.00 0.03 0.00 63 1009.4
20260505054003 6 291 0.0 3.2 0.00 0.03 0.00 63 1009.3
20260505053524 6 305 0.0 1.6 0.00 0.03 0.00 63 1009.3
20260505053003 6 306 0.0 1.6 0.00 0.03 0.00 62 1009.2
20260505052503 6 303 0.0 1.6 0.00 0.03 0.00 63 1009.1
20260505052024 6 0 0.0 0.0 0.00 0.03 0.00 63 1009.2
20260505051503 5 0 0.0 0.0 0.00 0.03 0.00 64 1009.2
20260505051002 5 152 0.0 1.6 0.00 0.03 0.00 65 1009.1
20260505050503 5 152 0.0 1.6 0.00 0.03 0.00 67 1009.0
20260505041503 4 0 0.0 0.0 0.00 0.03 0.00 52 1008.6
20260505041003 4 0 0.0 0.0 0.00 0.03 0.00 51 1008.5
20260505040502 5 0 0.0 0.0 0.00 0.03 0.00 50 1008.5
20260505040003 5 0 0.0 0.0 0.00 0.03 0.00 51 1008.5
20260505035503 5 0 0.0 0.0 0.00 0.03 0.00 51 1008.4
20260505035003 5 0 0.0 0.0 0.00 0.03 0.00 51 1008.4
20260505034503 5 0 0.0 0.0 0.00 0.03 0.00 50 1008.3
20260505034003 5 0 0.0 0.0 0.00 0.03 0.00 51 1008.3
20260505033503 5 0 0.0 0.0 0.00 0.03 0.00 51 1008.2
20260505033003 5 0 0.0 0.0 0.00 0.03 0.00 52 1008.3
20260505032503 5 0 0.0 0.0 0.00 0.03 0.00 51 1008.3
20260505032003 5 0 0.0 0.0 0.00 0.03 0.00 51 1008.2
20260505031503 6 0 0.0 0.0 0.00 0.03 0.00 53 1008.1
20260505031003 6 0 0.0 0.0 0.00 0.03 0.00 53 1008.2
20260505030502 6 0 0.0 0.0 0.00 0.03 0.00 54 1008.1
20260505030003 6 0 0.0 0.0 0.00 0.03 0.00 56 1008.0
20260505025503 6 0 0.0 0.0 0.00 0.03 0.00 58 1008.0
20260505025003 6 0 0.0 0.0 0.00 0.03 0.00 58 1008.0
20260505024503 7 0 0.0 0.0 0.00 0.03 0.00 58 1008.0
20260505024024 7 146 0.0 1.6 0.00 0.03 0.00 58 1008.0
20260505023503 7 146 0.0 1.6 0.00 0.03 0.00 58 1008.1
20260505023003 7 236 0.0 1.6 0.00 0.03 0.00 57 1008.1
20260505022503 7 289 0.0 3.2 0.00 0.03 0.00 56 1008.1
20260505022003 7 313 0.0 3.2 0.00 0.03 0.00 54 1008.0
20260505021503 7 332 0.0 3.2 0.00 0.05 0.00 52 1008.0
20260505021003 7 317 0.0 3.2 0.00 0.05 0.00 50 1008.0
20260505020524 7 311 0.0 4.8 0.00 0.05 0.00 49 1008.0
20260505020002 8 308 0.0 6.4 0.00 0.05 0.00 48 1008.0
20260505015503 8 308 0.0 6.4 0.00 0.05 0.00 48 1008.0
20260505015003 8 314 0.0 4.8 0.00 0.05 0.00 47 1008.0
20260505014524 8 315 0.0 4.8 0.00 0.05 0.00 47 1008.1
20260505014003 8 315 1.6 11.3 0.00 0.05 0.00 46 1008.0
20260505013524 8 317 0.0 11.3 0.00 0.05 0.00 45 1007.9
20260505013003 8 322 0.0 3.2 0.00 0.05 0.00 45 1008.0
20260505012503 8 315 0.0 3.2 0.00 0.05 0.00 45 1008.0
20260505012003 8 310 0.0 3.2 0.00 0.05 0.00 45 1008.0
20260505011524 8 299 0.0 6.4 0.00 0.08 0.00 44 1008.1
20260505011024 8 301 1.6 12.9 0.00 0.08 0.00 44 1008.0
20260505010502 8 310 0.0 12.9 0.00 0.08 0.00 42 1008.0
20260505010002 8 314 0.0 6.4 0.00 0.08 0.00 42 1007.9
20260505005503 8 273 0.0 4.8 0.00 0.10 0.00 41 1008.0
20260505005003 8 300 0.0 4.8 0.00 0.10 0.00 41 1008.0
20260505004503 8 300 0.0 11.3 0.00 0.13 0.00 40 1008.1
20260505004024 8 285 0.0 11.3 0.00 0.13 0.00 38 1008.1
20260505003503 8 308 0.0 4.8 0.00 0.15 0.00 34 1008.2
20260505003003 8 305 0.0 4.8 0.00 0.15 0.00 33 1008.3
20260505002503 8 296 0.0 6.4 0.00 0.15 0.00 33 1008.1
20260505002003 8 303 1.6 6.4 0.00 0.15 0.00 33 1008.2
20260505001503 8 305 1.6 9.7 0.00 0.15 0.00 34 1008.2
20260505001003 8 305 1.6 12.9 0.00 0.18 0.00 34 1008.2
20260505000503 8 299 1.6 12.9 0.00 0.18 0.00 34 1008.3
20260505000024 8 303 1.6 11.3 0.00 0.18 0.00 35 1008.2
20260504235503 8 310 0.0 11.3 0.00 0.18 0.00 34 1008.2
20260504235023 8 308 0.0 12.9 0.00 0.18 0.00 35 1008.1
20260504234524 8 310 0.0 12.9 0.00 0.18 0.00 36 1008.1
20260504234003 8 221 0.0 4.8 0.00 0.20 0.00 37 1008.1
20260504233503 8 304 1.6 12.9 0.00 0.20 0.00 39 1008.1
20260504233003 8 306 1.6 12.9 0.00 0.20 0.00 39 1007.9
20260504232503 8 258 0.0 6.4 0.00 0.20 0.00 38 1007.9
20260504232003 8 291 0.0 3.2 0.00 0.20 0.00 36 1008.0
20260504231503 8 305 0.0 3.2 0.00 0.23 0.00 35 1008.1
20260504231003 8 302 0.0 9.7 0.00 0.23 0.00 35 1008.1
20260504230502 8 301 1.6 11.3 0.00 0.23 0.00 35 1008.1
20260504230003 8 300 1.6 11.3 0.00 0.23 0.00 34 1008.1
20260504225524 8 301 1.6 8.0 0.00 0.23 0.00 34 1008.1
20260504225002 8 303 1.6 8.0 0.00 0.23 0.00 33 1008.1
20260504224503 8 300 0.0 6.4 0.00 0.23 0.00 33 1008.1
20260504224003 8 298 0.0 11.3 0.00 0.23 0.00 33 1008.1
20260504223503 8 302 0.0 11.3 0.00 0.23 0.00 33 1008.1
20260504223003 8 272 0.0 8.0 0.00 0.23 0.00 33 1008.1
20260504222503 8 277 0.0 8.0 0.00 0.23 0.00 32 1008.1
20260504222003 8 298 0.0 8.0 0.00 0.23 0.00 33 1008.2
20260504221503 8 249 0.0 8.0 0.00 0.23 0.00 33 1008.2
20260504221003 8 227 0.0 8.0 0.00 0.23 0.00 33 1008.2
20260504220502 8 299 1.6 11.3 0.00 0.23 0.00 33 1008.2
20260504220004 8 301 1.6 11.3 0.00 0.23 0.00 34 1008.2
20260504215503 8 300 1.6 8.0 0.00 0.23 0.23 34 1008.3
20260504215003 8 298 0.0 8.0 0.00 0.23 0.23 34 1008.3
20260504214524 8 287 0.0 8.0 0.00 0.23 0.23 34 1008.2
20260504214003 8 195 0.0 4.8 0.00 0.23 0.23 35 1008.3
20260504213503 8 176 0.0 4.8 0.00 0.23 0.23 36 1008.3
20260504213003 8 305 0.0 11.3 0.00 0.23 0.23 35 1008.3
20260504212503 8 305 1.6 11.3 0.00 0.23 0.23 36 1008.3
20260504212003 8 307 1.6 6.4 0.00 0.23 0.23 37 1008.3
20260504211503 8 296 1.6 8.0 0.00 0.23 0.23 38 1008.3
20260504211003 8 295 0.0 8.0 0.00 0.23 0.23 38 1008.3
20260504210523 8 256 0.0 6.4 0.00 0.23 0.23 39 1008.3
20260504210003 8 193 0.0 8.0 0.00 0.23 0.23 40 1008.2
20260504205524 8 207 0.0 8.0 0.00 0.23 0.23 40 1008.2
20260504205023 8 262 0.0 4.8 0.00 0.23 0.23 39 1008.3
20260504204503 8 251 0.0 6.4 0.00 0.23 0.23 39 1008.3
20260504204003 8 292 0.0 8.0 0.00 0.23 0.23 40 1008.3